GW2921 Weather Reports


time (UTC)temp
F
wind
direction
speed
knots
gust
knots
rain 1hr
in
rain 24hr
in
rain mn
in
humidity
%
barometer
mb
20260510191552 73 360 0.9 5.2 0.00 0.00 0.00 44 1017.2
20260510190051 75 292 0.9 6.1 0.00 0.00 0.00 41 1017.1
20260510184558 74 125 1.7 10.4 0.00 0.00 0.00 44 1017.2
20260510183056 74 142 1.7 7.0 0.00 0.00 0.00 45 1017.2
20260510181606 74 146 0.9 4.3 0.00 0.00 0.00 46 1017.2
20260510180106 72 235 1.7 6.1 0.00 0.00 0.00 46 1017.1
20260510174549 71 141 0.9 8.7 0.00 0.00 0.00 49 1017.3
20260510173051 71 360 1.7 7.0 0.00 0.00 0.00 51 1017.7
20260510171601 70 175 0.9 4.3 0.00 0.00 0.00 51 1017.8
20260510170051 71 167 2.6 8.7 0.00 0.00 0.00 51 1018.0
20260510164600 70 360 0.9 5.2 0.00 0.00 0.00 52 1018.0
20260510163056 70 0 1.7 7.0 0.00 0.00 0.00 53 1018.1
20260510161605 70 360 1.7 5.2 0.00 0.00 0.00 50 1018.1
20260510160054 70 155 2.6 7.8 0.00 0.00 0.00 49 1018.0
20260510154557 70 360 2.6 7.8 0.00 0.00 0.00 50 1018.0
20260510153053 69 209 1.7 3.5 0.00 0.00 0.00 52 1018.0
20260510151555 69 346 1.7 9.6 0.00 0.00 0.00 50 1018.0
20260510150120 69 167 1.7 7.0 0.00 0.00 0.00 57 1018.0
20260510144603 67 0 0.9 7.0 0.00 0.00 0.00 59 1018.0
20260510143048 67 112 0.9 6.1 0.00 0.00 0.00 56 1018.0
20260510141548 67 0 0.9 5.2 0.00 0.00 0.00 61 1017.8
20260510140049 66 0 0.0 2.6 0.00 0.00 0.00 64 1017.8
20260510134554 64 205 1.7 4.3 0.00 0.00 0.00 65 1017.8
20260510133049 62 0 0.0 2.6 0.00 0.00 0.00 71 1017.9
20260510131548 60 360 0.9 3.5 0.00 0.00 0.00 74 1018.0
20260510130052 59 360 0.9 2.6 0.00 0.00 0.00 77 1017.9
20260510124559 56 0 0.0 2.6 0.00 0.00 0.00 85 1017.9
20260510123057 52 0 0.0 2.6 0.00 0.00 0.00 91 1017.9
20260510121548 49 0 0.0 0.9 0.00 0.00 0.00 94 1017.8
20260510120049 47 0 0.0 0.9 0.00 0.00 0.00 95 1017.4
20260510114553 46 0 0.0 1.7 0.00 0.00 0.00 95 1017.3
20260510113051 45 242 0.0 1.7 0.00 0.00 0.00 94 1017.1
20260510111553 44 239 0.9 2.6 0.00 0.00 0.00 94 1017.1
20260510110050 44 252 0.9 2.6 0.00 0.00 0.00 94 1016.7
20260510104548 44 251 0.9 1.7 0.00 0.00 0.00 94 1016.4
20260510103049 43 250 0.9 2.6 0.00 0.00 0.00 94 1016.4
20260510101547 44 251 0.9 1.7 0.00 0.00 0.00 94 1016.2
20260510100053 44 261 0.9 1.7 0.00 0.00 0.00 94 1016.2
20260510094604 44 252 0.9 1.7 0.00 0.00 0.00 94 1016.2
20260510093139 44 252 0.0 1.7 0.00 0.00 0.00 94 1016.1
20260510091549 44 0 0.0 1.7 0.00 0.00 0.00 94 1016.1
20260510090053 44 0 0.0 0.9 0.00 0.00 0.00 94 1015.9
20260510084547 44 252 0.0 0.9 0.00 0.00 0.00 94 1015.7
20260510083104 44 252 0.0 1.7 0.00 0.00 0.00 94 1015.6
20260510081549 44 252 0.9 1.7 0.00 0.00 0.00 94 1015.5
20260510080053 44 269 0.9 1.7 0.00 0.00 0.00 93 1015.4
20260510074553 44 257 0.9 1.7 0.00 0.00 0.00 93 1015.2
20260510073056 44 252 0.0 1.7 0.00 0.00 0.00 93 1015.0
20260510071550 44 0 0.9 1.7 0.00 0.00 0.00 93 1015.0
20260510070051 45 252 0.9 1.7 0.00 0.00 0.00 93 1015.0
20260510064556 45 254 0.9 1.7 0.00 0.00 0.00 93 1015.0
20260510063047 45 248 1.7 2.6 0.00 0.00 0.00 93 1015.0
20260510061558 46 281 0.9 1.7 0.00 0.00 0.00 92 1015.0
20260510060052 46 322 0.9 1.7 0.00 0.00 0.00 92 1015.0
20260510054550 47 322 0.0 1.7 0.00 0.00 0.00 92 1014.9
20260510053059 47 322 0.0 0.9 0.00 0.00 0.00 92 1014.9
20260510051612 47 0 0.0 0.9 0.00 0.00 0.00 91 1015.0
20260510050058 47 0 0.0 0.9 0.00 0.00 0.00 91 1015.1
20260510043048 48 0 0.0 0.0 0.00 0.00 0.00 90 1015.0
20260510041556 48 0 0.0 0.9 0.00 0.00 0.00 90 1015.0
20260510040056 49 0 0.9 1.7 0.00 0.00 0.00 89 1015.0
20260510034555 49 0 0.0 0.0 0.00 0.00 0.00 88 1014.9
20260510033107 49 0 0.0 1.7 0.00 0.00 0.00 88 1014.8
20260510031551 50 0 0.0 1.7 0.00 0.00 0.00 87 1014.8
20260510024550 51 0 0.0 0.0 0.00 0.00 0.00 85 1014.8
20260510023050 51 0 0.0 0.9 0.00 0.00 0.00 85 1014.9
20260510021548 51 0 0.0 0.0 0.00 0.00 0.00 84 1014.5
20260510020050 52 0 0.0 0.0 0.00 0.00 0.00 83 1014.4
20260510014550 52 0 0.0 0.0 0.00 0.00 0.00 81 1014.0
20260510013051 53 0 0.0 0.0 0.00 0.00 0.00 80 1013.7
20260510011549 54 0 0.0 0.0 0.00 0.00 0.00 78 1013.5
20260510010053 55 0 0.0 0.0 0.00 0.00 0.00 76 1013.2
20260510004553 56 0 0.0 0.0 0.00 0.00 0.00 73 1013.0
20260510003050 57 0 0.0 0.0 0.00 0.00 0.00 71 1012.9
20260510001548 59 0 0.0 0.0 0.00 0.00 0.00 68 1012.9
20260510000050 60 0 0.0 0.9 0.00 0.00 0.00 65 1012.7
20260509234550 61 0 0.0 0.9 0.00 0.00 0.00 64 1012.5
20260509233050 62 0 0.0 1.7 0.00 0.00 0.00 62 1012.2
20260509231554 62 113 0.0 2.6 0.00 0.00 0.00 60 1012.1
20260509230058 63 0 0.9 2.6 0.00 0.00 0.00 57 1012.1
20260509224558 64 215 0.9 3.5 0.00 0.00 0.00 55 1012.1
20260509223052 64 0 0.0 6.1 0.00 0.00 0.00 57 1012.3
20260509221554 66 0 0.9 3.5 0.00 0.00 0.00 56 1012.3
20260509220100 66 0 0.0 5.2 0.00 0.00 0.00 55 1012.2
20260509214559 65 205 1.7 8.7 0.00 0.00 0.00 55 1012.2
20260509213127 65 360 0.0 7.0 0.00 0.00 0.00 58 1012.2
20260509211552 66 360 0.9 4.3 0.00 0.00 0.00 56 1012.1
20260509204550 65 122 0.9 2.6 0.00 0.00 0.00 55 1011.9